THOR ABLESTAR DEB, 133

Orbit data source: Space-Track

THOR ABLESTAR DEB, 133 is space debris in LEO originally from a launch on Thu, 29 Jun 1961 UTC launched from the Air Force Eastern Test Range (AFETR). Debris objects in space refer to the collection of defunct objects orbiting the Earth. Examples of debris include non-operational satellites, rocket bodies, and fragments generated from explosions, collisions, or faulty payload assembly.

Loading next visibility...
Identifier
133, 1961-015T
Orbit
LEO
Country
Flag of USUS
Related business
Manufacturer
Unknown
Mission
Spacecraft
Bus & Motor
Unknown
Mass
Unknown
Launch date (UTC)
1961-06-29 (65 years ago)
Launch vehicle
Unknown
Launch site
Air Force Eastern Test Range (AFETR)
Object type
Payload
Rocket body
Debris
Shape & HBR
Unknown shape, 0.6 m
Radar Cross Section
Medium (>0.1 m² and <1 m²)

Expand to show TLE details & history
Last TLE update: 15 hours ago

TLE from 15 hours ago
0 THOR ABLESTAR DEB
1 00133U 61015T   26140.83719559  .00000434  00000-0  22579-3 0  9999
2 00133  67.1143 289.1936 0048328 166.9814 193.2544 14.22992465329599
Epoch: 2026-05-20T20:05Z
TLE epoch observation values (Epoch: 2026-05-20T20:05:33.698Z)
Latitude
-0.00008°
Longitude
109.31214°
Altitude
851.233 km
Speed
7.41 km/s
True Right ascension
19h 16m 46s
True Declination
0° 00' 00"
Sunlit
Object was in full shadow at epoch
Visualization orbit readout
Latitude
Unknown
Longitude
Unknown
Altitude
Unknown
Speed
Unknown
Apparent Right ascension
Unknown
Apparent Declination
Unknown
Sunlit
N/A
Visualization observer readout
Local Sidereal Time
20:25:36
Azimuth
Unknown
Elevation
Unknown
Doppler factor
Unknown
Orbital elements
Apogee altitude
848.339 km
Perigee altitude
778.826 km
Semi-major axis
7,191.72 km
Eccentricity
0.00483
Inclination
67.1143°
RAAN
289.1936°
Arg. of periapsis
166.9814°
True anomaly
193.12817°
Mean anomaly
193.2544°
Eccentric anomaly
193.19121°
Mean motion
3.55872 °/min
Orbital period
101.16 mins
BSTAR
0.00022579
Loading maneuver chart data...
Computing Atmospheric mass density...
Loading historical data...
Loading historical data...
Loading historical data...
Loading historical data...
Loading historical data...
Loading historical data...
Loading historical data...

Documentation

Showing up to 5 results
|